Regional Weather Roundup
Issued by NWS

Home | Current Version | Previous Version | Text Only | Print | Product List | Glossary Off
Versions: 1 2 3 4 5 6 7 8 9 10 11 12 13 14 15 16 17 18 19 20 21 22 23 24 25 26 27 28 29 30 31 32 33 34 35 36 37 38 39 40 41 42 43 44 45 46 47 48 49 50

000
ASUS45 KBOU 030110
RWRCO

WEATHER ROUNDUP FOR COLORADO
NATIONAL WEATHER SERVICE DENVER/BOULDER CO
700 PM MDT THU JUL 02 2015

NOTE: "FAIR" INDICATES FEW OR NO CLOUDS BELOW 12000 FEET WITH NO
SIGNIFICANT WEATHER AND/OR OBSTRUCTIONS TO VISIBILITY.

COZ001>005-013-030-031-030200-
...NORTHWEST COLORADO...

CITY           SKY/WX    TMP DP  RH WIND       PRES   REMARKS
CRAIG          SUNNY     88  38  17 N8        30.10F
HAYDEN         SUNNY     84  37  18 NE5       30.13F
MEEKER         SUNNY     87  42  20 NE9G17    30.11F
MOUNT WERNER   NOT AVBL
STEAMBOAT SPGS SUNNY     82  42  24 NW7       30.16S
WALDEN         MOSUNNY   70  36  28 NE12G17   30.31R
$$

COZ006>008-011-030200-
...WEST CENTRAL VALLEYS...

CITY           SKY/WX    TMP DP  RH WIND       PRES   REMARKS
GRAND JUNCTION PTSUNNY   93  46  19 W6        29.96F
MONTROSE       PTSUNNY   88  45  22 NW5       30.06F
EAGLE          MOSUNNY   84  46  26 NE6       30.13F
RIFLE          SUNNY     93  39  15 N12       30.02F
DELTA          PTSUNNY   94  43  17 CALM      30.00S
NUCLA          PTSUNNY   88  41  19 CALM      30.11S
$$

COZ017>023-064>068-030200-
...SOUTHWEST COLORADO...

CITY           SKY/WX    TMP DP  RH WIND       PRES   REMARKS
DURANGO        CLOUDY    73  51  46 N7        30.17S
CORTEZ         SUNNY     79  59  50 NE14G21   30.12R
PAGOSA SPRINGS CLOUDY    71  53  53 E3        30.27F
TELLURIDE      CLOUDY    69  46  43 N3        30.40R
WOLF CREEK PAS NOT AVBL
$$

COZ009-010-012-014-032>034-037-058>063-030200-
...CENTRAL COLORADO...

CITY           SKY/WX    TMP DP  RH WIND       PRES   REMARKS
ASPEN          PTSUNNY   75  43  31 E13G23    30.24R
BUENA VISTA    PTSUNNY   62  55  77 SE8       30.36F
COPPER MTN     PTSUNNY   64  41  42 S7        30.62R
BERTHOUD PASS  PTSUNNY   45  34  65 E9G23     30.66F
COTTONWOOD PAS NOT AVBL
GUNNISON       PTSUNNY   70  46  43 E24G31    30.28R
KREMMLING      MOSUNNY   79  30  17 NW7       30.22S
LEADVILLE      PTSUNNY   55  49  80 S12       30.45S
MONARCH PASS   CLOUDY    46  43  87 NE13      30.72S
SALIDA         PTSUNNY   63  57  79 SE5       30.40F
SUNLIGHT       MOSUNNY   70  37  30 NW5       30.53S
WILKERSON PASS PTSUNNY   48  41  76 N3        30.61F
$$

COZ069>075-030200-
...SAN LUIS VALLEY/SANGRE DE CRISTO MOUNTAINS...

CITY           SKY/WX    TMP DP  RH WIND       PRES   REMARKS
ALAMOSA        LGT RAIN  59  53  80 W13       30.31R
LA VETA PASS   CLOUDY    52  50  93 MISG      30.52R FOG
SAGUACHE       CLOUDY    68  50  52 N9        30.32R
$$

COZ035-036-038>040-030200-
...NORTHERN COLORADO FRONT RANGE...

CITY           SKY/WX    TMP DP  RH WIND       PRES   REMARKS
DENVER INTL AP PTSUNNY   77  50  38 SE9       30.14S
DMNS CITY PARK   N/A     78  50  36 SE5G29    30.13S
AURORA         MOSUNNY   78  53  41 SE10      30.16F
FRONT RANGE AP PTSUNNY   81  52  36 SE5       30.16F
ERIE MUNI ARPT MOSUNNY   80  47  30 CALM      30.12S
BOULDER MUN AP MOSUNNY   79  46  31 SE3       30.13S
CENTENNIAL     MOSUNNY   75  51  43 E9        30.16F
BROOMFIELD     PTSUNNY   77  50  38 VRB5      30.17S
FORT COLLINS   PTSUNNY   66  57  72 E14       30.15R
LONGMONT       PTSUNNY   82  49  31 NE6       30.15R
$$

COZ041-046-047-076>085-087-088-030200-
...PIKES PEAK/PALMER DIVIDE AND SOUTHERN FOOTHILLS...

CITY           SKY/WX    TMP DP  RH WIND       PRES   REMARKS
COLO. SPRINGS  PTSUNNY   71  57  61 SW9       30.23F
A. F. ACADEMY  MOSUNNY   71  57  60 S8        30.23F
ELLICOTT       MOSUNNY  N/A N/A N/A S6        30.21F
FALCON         MOSUNNY   71  55  55 S8        30.28S
FORT CARSON    NOT AVBL
LIMON          SUNNY     78  51  38 CALM      30.16F
MONUMENT HILL  NOT AVBL
TRINIDAD       CLOUDY    73  58  59 N3        30.21S
$$

COZ042>045-048>051-090-091-030200-
...NORTHEAST COLORADO...

CITY           SKY/WX    TMP DP  RH WIND       PRES   REMARKS
GREELEY ARPT   PTSUNNY   68  61  77 N22G32    30.18R THUNDER
AKRON          MOSUNNY   78  55  44 NE10      30.12R
BURLINGTON     SUNNY     83  53  35 NE10      30.09R
WRAY           SUNNY     83  54  37 N9        30.06S
STERLING       MOSUNNY   81  54  39 E6          N/A
HOLYOKE        SUNNY     81  55  41 NE9       30.07R
FORT MORGAN    MOSUNNY   76  55  48 NE8       30.12R
$$

COZ086-089-092>099-030200-
...SOUTHEAST COLORADO...

CITY           SKY/WX    TMP DP  RH WIND       PRES   REMARKS
PUEBLO         CLOUDY    80  56  43 SW8       30.12F
LA JUNTA       PTSUNNY   80  59  48 NW6       30.07F
LAMAR          MOSUNNY   86  56  35 N10       30.02F
SPRINGFIELD      N/A     83  53  35 N13       30.06S
$$



USA.gov is the U.S. government's official web portal to all federal, state and local government web resources and services.